Temperature
31 33 33 33 33 33 33 33 32 32 33 32 32 32 32 30 29 28 27 26 26 25 25 23 23 22 22 21 21 21 20 20 20 19 19 19 18 18 18 18 18 18 18 18
32 32 33 33 33 32 32 32 32 32 32 32 32 32 32 31 29 29 28 27 26 26 25 24 23 22 22 22 21 21 21 20 20 19 19 19 19 18 18 18 18 18 18 18
32 33 32 32 32 32 32 32 33 32 32 32 32 32 32 31 30 29 28 28 27 27 26 24 23 23 23 22 22 21 21 21 20 20 19 19 19 19 18 18 18 18 18 18
32 32 32 32 32 32 32 33 32 32 32 32 32 32 32 32 31 30 29 28 28 27 26 25 24 24 23 23 22 22 22 21 21 20 19 19 19 19 19 18 18 18 18 18
31 32 31 31 32 32 32 33 32 32 32 32 32 32 33 32 31 31 30 29 28 28 27 26 25 24 24 23 22 22 22 22 21 21 20 20 19 19 19 18 18 18 18 18
32 32 32 32 32 32 32 32 31 32 32 31 32 32 32 32 31 32 31 29 28 28 27 26 25 24 24 23 23 22 22 22 21 21 21 20 20 19 19 19 19 19 18 18
30 31 32 32 32 31 32 31 31 30 31 31 32 31 31 32 32 31 31 30 28 28 27 26 25 25 24 24 23 23 23 22 22 21 21 21 20 20 19 19 19 19 19 18
30 30 31 31 32 31 32 32 30 30 30 32 31 31 32 32 31 30 30 29 28 28 27 26 26 25 24 24 23 23 23 23 22 22 21 21 21 20 20 20 19 19 19 19
30 30 31 31 31 32 31 32 33 32 31 31 31 31 32 32 31 30 30 29 28 27 27 26 25 25 24 24 23 23 23 23 22 22 21 21 21 21 20 20 19 19 19 19
30 29 31 30 31 30 31 32 31 31 29 29 31 31 31 30 30 30 30 29 28 27 27 26 25 25 24 24 23 23 23 23 22 22 22 21 21 21 20 20 20 19 19 19
29 29 30 30 30 31 30 30 31 31 31 30 30 31 31 30 30 29 29 28 27 27 26 26 25 25 24 24 23 23 23 23 22 22 21 21 21 21 20 20 20 19 19 19
28 29 29 30 30 30 30 31 30 30 29 30 30 30 30 30 29 29 28 27 26 26 26 25 25 24 24 24 23 23 22 22 22 22 22 21 21 21 20 20 20 20 19 19
27 28 27 28 29 29 29 30 30 30 30 30 30 30 30 29 28 27 27 26 26 25 25 24 24 24 23 23 23 23 22 22 22 22 21 21 21 21 20 20 20 20 19 19
25 27 27 28 29 29 28 29 29 29 30 30 30 30 29 28 28 27 26 25 25 24 24 24 23 23 23 23 23 22 22 22 22 21 21 21 21 21 20 20 20 20 19 19
25 26 27 28 28 29 28 29 29 29 29 29 30 30 28 28 27 26 25 25 24 24 23 23 23 22 22 22 22 22 22 22 21 21 21 21 21 21 20 20 19 19 19 19
24 25 26 26 27 28 27 28 28 28 28 29 29 28 28 26 26 25 24 24 23 23 23 22 22 22 21 21 21 22 21 21 21 21 21 21 21 20 20 19 19 19 19 18
24 24 24 26 27 26 26 27 27 28 28 28 28 27 26 25 24 24 24 23 23 22 22 22 21 21 21 21 21 21 21 21 21 21 20 20 20 20 20 19 19 18 18 18
22 23 24 25 25 24 26 26 26 26 26 26 26 25 25 24 23 23 23 22 22 21 21 21 21 21 21 20 20 21 21 21 21 20 20 20 20 20 20 19 19 18 18 18
22 22 23 24 25 25 25 25 25 25 25 25 24 24 24 23 23 24 22 21 20 20 20 20 20 20 20 20 20 20 20 20 20 20 19 19 19 19 19 19 18 18 18 18
21 21 23 23 23 24 25 24 24 24 24 23 23 23 23 23 25 25 21 20 19 19 19 18 19 19 19 19 19 19 19 19 19 19 19 19 19 19 19 18 18 18 17 17
21 21 22 23 23 24 23 23 23 23 23 22 22 22 21 22 22 20 19 19 18 18 18 18 18 18 18 18 18 18 18 18 18 18 18 19 18 18 18 18 18 17 17 17
22 22 21 22 22 23 22 22 22 21 20 20 20 20 20 20 19 19 18 18 17 17 17 17 17 17 17 17 17 17 18 18 18 18 17 18 18 18 18 17 17 17 17 16
21 21 22 22 22 20 19 20 19 19 19 19 19 19 19 18 18 18 17 17 17 16 16 16 17 17 16 16 16 16 17 17 17 17 17 17 17 17 17 17 17 16 16 15
19 19 20 20 20 19 19 18 18 18 18 18 18 18 18 18 17 17 16 16 16 15 15 16 16 16 16 16 16 16 16 16 16 16 16 16 16 16 16 16 16 16 15 15
19 19 19 19 19 19 18 17 17 17 17 17 17 17 17 17 17 16 16 15 15 15 15 15 15 15 15 15 15 15 15 15 15 15 15 15 16 16 15 16 15 15 15 15
19 18 18 19 18 18 17 16 16 16 16 16 16 16 16 16 16 15 15 14 14 14 14 14 14 14 14 14 15 15 15 15 15 14 15 15 15 15 15 14 14 14 14 14
Wind_Speed
9 12 13 10 8 6 5 6 5 2 2 5 6 6 5 9 13 14 14 14 14 14 13 12 12 12 12 11 11 11 10 10 8 7 7 6 6 5 5 5 5 5 5 6
11 15 11 7 7 8 9 9 6 3 3 5 6 7 6 9 13 14 15 15 15 14 13 13 13 13 13 13 12 12 12 11 10 8 7 5 5 5 5 4 4 6 6 6
17 10 8 9 10 11 11 10 7 5 4 7 7 8 7 8 11 12 13 14 15 15 15 14 14 14 14 13 14 12 12 11 11 10 7 5 5 5 5 5 5 6 6 6
14 10 9 12 12 12 11 8 7 7 8 6 6 7 5 7 9 11 13 15 16 16 15 15 15 15 15 14 13 13 12 12 11 10 9 9 7 6 5 5 4 5 6 6
12 11 12 13 11 10 9 5 7 8 9 9 8 8 4 5 7 9 11 14 16 16 16 16 15 15 14 13 13 13 12 12 12 11 11 10 9 7 5 5 4 5 5 6
11 8 10 10 8 8 6 6 6 8 10 12 10 9 7 3 5 6 7 11 13 15 15 15 15 14 13 13 13 13 13 12 12 12 12 11 10 8 6 6 5 5 5 5
14 13 10 9 10 10 11 11 9 11 11 11 6 8 6 3 3 4 4 6 10 13 14 14 15 15 14 14 14 13 13 13 13 13 12 11 10 9 8 7 6 6 5 5
16 16 13 11 13 12 14 15 13 11 11 9 7 8 4 1 2 3 3 3 6 10 12 13 14 14 14 14 14 14 14 13 12 12 12 11 11 9 8 9 7 6 5 4
12 13 9 9 9 11 13 15 13 13 13 11 8 6 6 2 2 2 2 1 4 8 10 11 12 13 13 13 14 14 13 12 12 12 11 10 11 10 8 8 8 7 6 5
9 10 11 9 9 7 10 10 10 13 13 13 12 11 7 3 3 3 3 1 3 6 8 9 10 11 11 12 12 12 12 12 11 11 10 9 10 10 9 8 8 7 6 5
11 11 11 11 12 13 11 12 11 12 13 14 13 7 2 1 2 3 3 2 2 5 7 8 8 9 10 11 11 11 11 11 11 11 10 9 9 9 9 9 8 8 7 7
9 10 12 12 8 6 12 13 14 13 13 12 14 7 4 1 2 3 3 3 1 3 5 7 8 8 9 10 10 11 11 11 11 10 10 10 9 9 9 9 9 8 8 7
6 9 12 13 12 10 11 11 12 13 12 14 16 10 4 2 2 3 3 3 2 2 4 6 7 7 7 8 9 9 10 10 10 10 10 10 10 10 10 9 8 8 8 8
5 9 12 14 9 10 12 12 12 14 15 15 16 12 4 1 3 4 4 2 1 2 3 5 6 6 6 7 8 9 9 9 9 9 10 10 10 10 9 9 8 8 8 8
5 10 11 11 8 9 12 12 13 15 15 16 13 11 6 3 3 3 3 2 1 1 1 3 4 5 6 6 7 8 9 8 8 9 9 9 9 8 8 8 8 8 8 8
3 7 9 12 11 11 13 14 14 14 14 14 13 10 3 3 2 2 3 2 2 1 1 1 2 3 5 6 6 8 8 8 8 9 9 8 8 8 8 7 7 7 7 7
4 6 9 12 11 11 16 13 14 13 11 12 13 7 3 3 3 3 3 2 3 4 3 3 3 3 4 5 6 7 7 8 9 9 9 9 9 8 8 7 7 7 7 7
6 7 8 10 10 15 7 3 6 8 7 6 4 4 4 4 5 4 1 3 5 5 5 5 4 4 4 4 5 5 7 7 8 8 8 8 8 8 7 7 7 7 7 7
8 8 8 10 14 12 7 5 6 8 7 3 4 4 4 5 5 4 2 6 6 6 6 5 5 5 4 4 4 5 6 7 8 8 8 8 7 7 7 7 7 7 7 7
7 9 9 10 12 13 6 4 3 7 9 2 3 4 4 5 6 4 6 8 7 7 6 6 6 5 3 3 3 5 6 7 8 8 7 7 7 7 8 8 7 6 6 7
10 9 13 13 13 8 1 2 5 10 4 1 4 4 5 6 7 8 8 7 7 6 6 6 5 4 4 3 3 5 5 6 6 6 6 7 7 7 7 7 6 6 6 6
9 9 11 11 13 8 4 2 3 3 5 4 5 6 7 8 8 7 6 6 7 6 6 6 5 5 4 4 4 5 5 4 4 5 6 6 6 6 6 7 6 6 6 6
5 4 4 5 3 4 2 2 3 4 5 6 7 7 7 8 8 7 6 6 6 6 6 6 5 5 5 4 4 5 4 3 4 5 6 6 5 5 5 6 6 5 5 5
3 2 4 4 3 1 2 3 4 5 6 7 8 9 8 9 8 7 6 6 6 6 6 6 5 5 5 4 4 4 3 4 4 6 6 5 5 5 4 4 5 5 5 5
4 4 5 7 5 5 3 4 6 7 8 8 8 9 8 9 8 7 6 6 6 6 6 6 6 5 5 5 4 3 2 3 4 5 5 5 5 5 4 3 2 4 4 4
6 6 7 6 3 5 6 7 8 9 9 9 9 9 9 8 7 7 6 6 6 7 6 6 6 6 5 5 4 3 3 3 3 4 5 5 5 5 5 4 3 4 3 5
Wind_Direction
205 223 224 224 234 255 253 256 252 238 201 235 248 251 208 191 200 202 199 199 201 204 200 198 200 203 201 201 203 205 206 200 202 207 211 211 216 222 221 222 221 228 230 225
212 226 228 227 224 230 237 243 240 214 193 245 263 260 227 199 206 207 206 205 206 203 199 198 200 202 203 202 203 202 203 201 203 205 212 217 223 223 225 231 218 227 231 231
224 220 203 211 215 225 233 242 245 240 209 228 265 249 219 204 207 209 214 214 211 207 202 199 201 204 204 204 203 203 202 200 203 203 206 206 210 222 216 219 218 223 227 232
226 217 202 215 222 231 233 234 240 234 239 243 245 269 213 203 204 210 215 216 215 211 208 203 201 203 205 204 201 200 197 197 197 199 208 209 217 222 223 229 224 218 221 230
212 209 210 220 224 230 241 224 225 236 247 258 240 262 240 189 227 229 223 220 217 213 210 206 204 202 203 200 197 194 193 195 196 199 204 211 222 224 224 226 220 228 218 220
225 210 223 226 221 221 196 186 203 231 244 247 247 254 256 234 262 262 231 221 216 211 209 207 205 199 199 196 193 190 190 195 196 200 205 211 219 222 226 224 222 220 215 217
218 214 212 216 211 199 208 219 226 229 231 241 221 243 259 309 310 294 272 227 210 206 205 202 200 197 196 195 193 191 191 195 197 200 205 209 214 217 221 229 224 226 222 216
213 213 205 209 222 217 217 229 237 245 245 234 197 236 243 308 341 318 292 237 200 197 197 197 196 196 196 194 192 192 193 196 197 201 205 208 210 215 218 218 229 223 229 224
221 216 188 202 219 227 216 229 244 250 256 260 237 227 234 234 306 330 334 225 190 189 189 188 188 191 192 191 190 191 190 192 195 199 202 206 210 217 218 212 217 224 221 217
235 227 197 190 199 212 240 229 228 240 243 247 242 233 239 258 304 351 2 347 189 183 180 179 181 183 185 184 183 185 187 189 191 194 199 203 207 210 214 217 217 220 218 216
234 231 210 200 215 214 206 218 229 239 246 250 252 238 191 229 329 336 349 358 174 178 174 172 174 176 178 178 177 180 182 185 188 192 194 200 203 205 207 211 213 210 213 206
222 232 229 216 210 241 228 228 222 232 235 242 260 252 114 98 354 349 352 18 66 167 169 167 168 170 174 177 178 181 185 188 190 191 192 196 200 203 205 208 209 206 204 205
214 224 225 215 203 205 217 219 228 236 242 243 248 241 145 107 3 5 2 17 64 130 164 169 169 172 175 181 184 185 189 192 192 191 195 197 200 202 206 209 206 202 200 200
247 232 236 239 227 203 212 216 221 231 239 242 244 246 227 272 325 346 350 0 51 113 154 175 177 177 183 195 193 195 196 197 196 193 195 199 202 204 206 207 207 204 200 198
241 232 235 248 249 235 230 229 227 233 246 254 249 242 248 275 306 323 333 347 22 94 153 181 188 189 192 197 200 201 201 198 197 197 200 202 202 200 203 205 207 206 203 201
258 239 231 236 235 238 240 236 235 236 242 247 249 244 257 279 310 333 337 350 345 323 282 243 217 206 204 204 208 207 203 197 194 200 203 199 195 195 197 203 205 202 198 196
239 229 231 234 228 237 238 236 235 233 236 243 245 247 261 273 297 303 311 334 343 333 317 292 264 245 232 221 213 212 208 196 195 198 198 194 191 190 190 190 189 192 185 183
241 242 235 237 224 235 227 209 228 224 222 235 253 259 263 280 281 265 298 346 335 329 320 308 291 271 252 237 225 216 205 198 195 195 194 191 191 191 183 181 185 189 187 183
228 231 236 233 231 231 216 204 215 221 220 220 248 268 293 311 269 222 3 337 326 322 320 314 303 287 274 249 231 220 208 201 199 198 196 191 187 186 185 186 186 187 187 190
201 221 234 231 240 236 205 167 226 234 224 199 266 282 301 304 269 284 336 323 323 324 326 323 311 297 284 273 239 224 218 209 207 204 198 188 184 185 187 191 190 189 190 191
195 208 227 232 237 238 148 192 213 226 234 320 293 291 288 288 301 313 312 313 317 319 320 319 312 300 293 282 255 232 226 221 215 208 201 192 185 186 186 183 183 184 188 187
219 216 219 231 236 226 81 184 226 320 346 315 301 297 297 302 306 308 310 314 317 319 319 318 311 302 295 276 255 245 237 234 214 201 197 196 188 184 181 177 180 182 182 183
233 264 251 245 254 57 44 341 348 329 315 312 306 303 298 297 300 302 306 313 317 318 318 315 312 308 296 279 263 253 245 237 217 200 193 186 180 175 178 178 180 181 184 192
210 255 256 251 228 268 304 306 320 319 310 305 302 299 292 290 293 295 300 305 309 310 309 309 305 298 293 284 267 252 228 210 205 201 194 181 177 176 176 180 185 182 179 192
261 241 244 249 265 277 261 302 314 313 306 301 299 295 292 289 287 289 291 294 299 298 300 301 297 293 292 292 278 254 238 210 210 201 191 184 180 179 180 185 188 186 177 187
247 252 256 266 290 288 292 300 302 299 297 296 294 290 287 287 284 283 286 290 293 294 297 298 296 294 294 288 270 251 224 205 215 220 205 196 189 186 190 179 153 84 127 124
Height
1499 1498 1496 1494 1493 1495 1497 1499 1501 1499 1498 1500 1500 1499 1501 1506 1510 1513 1517 1520 1523 1526 1529 1532 1534 1536 1538 1539 1541 1542 1544 1545 1546 1547 1549 1550 1551 1551 1552 1553 1553 1554 1554 1555
1497 1495 1490 1492 1494 1496 1498 1500 1499 1498 1498 1500 1498 1497 1496 1502 1506 1509 1513 1516 1519 1523 1526 1529 1531 1533 1535 1537 1538 1540 1541 1543 1544 1545 1547 1548 1549 1550 1550 1551 1551 1552 1552 1553
1492 1489 1490 1493 1495 1497 1496 1497 1496 1499 1499 1498 1499 1497 1494 1497 1502 1506 1509 1512 1515 1518 1521 1525 1527 1530 1532 1533 1535 1537 1539 1540 1542 1543 1545 1546 1546 1547 1548 1548 1549 1549 1550 1551
1488 1487 1491 1492 1493 1493 1496 1491 1494 1497 1501 1497 1499 1504 1493 1492 1497 1501 1504 1507 1510 1513 1517 1520 1523 1526 1528 1530 1532 1534 1536 1538 1540 1541 1543 1544 1545 1546 1546 1546 1547 1547 1547 1548
1487 1487 1490 1491 1489 1489 1490 1489 1492 1494 1497 1499 1496 1502 1493 1489 1494 1495 1498 1501 1504 1508 1512 1516 1519 1522 1525 1527 1529 1531 1533 1535 1537 1539 1540 1541 1543 1544 1545 1544 1544 1544 1545 1546
1482 1485 1486 1486 1486 1488 1490 1493 1494 1494 1493 1508 1498 1502 1499 1487 1490 1489 1492 1496 1499 1503 1507 1511 1515 1518 1521 1524 1526 1528 1530 1532 1534 1536 1537 1539 1540 1541 1542 1542 1542 1543 1544 1544
1486 1484 1484 1485 1487 1488 1490 1496 1506 1509 1508 1504 1491 1499 1495 1485 1486 1488 1489 1492 1495 1499 1503 1507 1511 1514 1517 1520 1522 1525 1527 1529 1531 1533 1534 1536 1537 1539 1539 1540 1541 1541 1542 1543
1488 1488 1480 1481 1482 1484 1485 1487 1504 1514 1508 1496 1496 1497 1488 1483 1487 1489 1489 1490 1492 1495 1498 1502 1506 1510 1513 1516 1519 1521 1523 1525 1527 1529 1531 1533 1534 1536 1537 1538 1539 1540 1541 1541
1479 1482 1477 1479 1480 1480 1484 1484 1478 1489 1494 1500 1491 1488 1484 1482 1485 1486 1487 1488 1490 1492 1495 1499 1502 1506 1509 1512 1515 1518 1520 1522 1524 1527 1529 1530 1532 1533 1535 1535 1536 1537 1538 1538
1475 1483 1476 1479 1480 1481 1479 1478 1484 1490 1506 1509 1497 1492 1488 1485 1484 1484 1486 1487 1489 1491 1494 1497 1500 1503 1506 1509 1512 1514 1517 1519 1521 1524 1526 1528 1529 1530 1532 1533 1534 1535 1535 1536
1475 1482 1478 1478 1480 1478 1483 1484 1483 1484 1487 1501 1502 1491 1477 1483 1484 1485 1485 1487 1488 1491 1493 1495 1498 1501 1504 1507 1509 1511 1513 1516 1518 1521 1522 1524 1526 1528 1529 1530 1531 1531 1532 1533
1478 1477 1478 1476 1474 1475 1475 1476 1480 1491 1493 1490 1492 1489 1476 1481 1483 1485 1486 1488 1489 1490 1492 1494 1497 1499 1502 1504 1506 1509 1511 1513 1515 1517 1519 1521 1523 1524 1526 1527 1528 1529 1529 1530
1479 1480 1487 1484 1482 1479 1477 1476 1476 1478 1483 1486 1491 1487 1477 1481 1484 1486 1487 1488 1489 1490 1492 1493 1495 1497 1500 1502 1504 1506 1508 1511 1513 1514 1516 1517 1519 1521 1522 1524 1525 1526 1526 1527
1483 1478 1480 1480 1474 1473 1477 1477 1476 1478 1480 1482 1481 1479 1477 1480 1483 1486 1487 1488 1489 1490 1491 1492 1494 1495 1497 1499 1501 1503 1505 1508 1510 1511 1512 1514 1515 1517 1519 1520 1521 1522 1523 1524
1481 1478 1476 1472 1469 1470 1473 1474 1475 1477 1476 1477 1473 1475 1478 1481 1484 1486 1487 1488 1488 1489 1489 1490 1491 1493 1495 1496 1498 1499 1502 1504 1506 1507 1509 1510 1512 1513 1515 1516 1518 1519 1520 1521
1482 1480 1478 1478 1472 1472 1474 1472 1472 1474 1474 1474 1474 1476 1479 1483 1485 1487 1487 1488 1488 1488 1489 1489 1490 1491 1492 1493 1494 1496 1497 1499 1500 1502 1504 1506 1507 1508 1510 1512 1514 1515 1516 1517
1481 1482 1482 1478 1473 1476 1478 1470 1470 1471 1471 1473 1474 1477 1480 1482 1485 1486 1486 1487 1487 1487 1488 1488 1488 1488 1489 1490 1490 1492 1493 1495 1496 1498 1500 1501 1502 1504 1505 1507 1509 1511 1511 1512
1486 1484 1480 1475 1481 1490 1471 1468 1469 1471 1473 1475 1477 1479 1481 1483 1484 1485 1485 1486 1486 1486 1485 1485 1485 1486 1486 1487 1488 1489 1490 1491 1493 1494 1495 1497 1498 1500 1501 1503 1505 1506 1507 1508
1484 1485 1479 1476 1477 1474 1472 1471 1472 1474 1476 1477 1479 1480 1482 1483 1481 1481 1483 1484 1485 1484 1483 1482 1482 1482 1482 1483 1484 1485 1486 1487 1488 1490 1491 1492 1494 1496 1497 1499 1500 1501 1503 1503
1483 1484 1480 1478 1480 1478 1469 1471 1474 1476 1478 1479 1480 1481 1482 1481 1477 1477 1482 1482 1482 1482 1481 1479 1479 1479 1479 1479 1480 1481 1482 1483 1483 1485 1486 1488 1489 1491 1493 1495 1496 1498 1499 1500
1480 1482 1479 1476 1477 1467 1469 1472 1474 1480 1477 1480 1480 1481 1482 1481 1481 1482 1481 1481 1480 1479 1478 1477 1476 1475 1475 1475 1476 1476 1477 1478 1479 1481 1482 1483 1484 1486 1487 1489 1491 1493 1494 1496
1473 1472 1476 1474 1476 1472 1474 1474 1475 1477 1480 1480 1480 1481 1482 1482 1481 1480 1480 1479 1478 1476 1475 1474 1473 1472 1472 1472 1472 1472 1473 1474 1476 1477 1478 1479 1480 1481 1483 1484 1486 1488 1490 1492
1473 1472 1467 1470 1472 1476 1478 1478 1480 1481 1481 1480 1480 1480 1480 1479 1479 1478 1477 1477 1476 1474 1473 1472 1471 1469 1469 1469 1469 1469 1469 1471 1471 1473 1473 1474 1476 1477 1478 1480 1482 1483 1485 1487
1475 1478 1476 1475 1474 1477 1479 1480 1480 1480 1480 1480 1479 1478 1477 1477 1476 1475 1475 1474 1473 1472 1471 1469 1468 1467 1466 1466 1465 1465 1466 1467 1468 1469 1470 1471 1472 1473 1474 1475 1478 1479 1480 1483
1476 1477 1475 1475 1476 1477 1478 1479 1480 1479 1478 1477 1476 1476 1475 1474 1473 1473 1472 1471 1470 1469 1467 1466 1465 1464 1463 1462 1461 1462 1462 1463 1464 1465 1466 1467 1468 1469 1470 1472 1473 1474 1476 1478
1476 1476 1476 1473 1477 1478 1478 1479 1478 1477 1476 1475 1474 1472 1472 1471 1470 1469 1468 1468 1467 1465 1464 1463 1462 1461 1460 1459 1458 1457 1458 1459 1461 1463 1463 1463 1464 1466 1467 1468 1468 1470 1472 1474